Location: Ergnies
(50.0854°N, 2.0375°E)
Time: 09:55:17
(UTC+00:00)

CZ-4C R/B - Pass Details

Date: 14 January 2026
Orbit: 482 x 1496 km, 63.4° (Epoch: 18 February)

Event Time Altitude Azimuth Distance (km) Brightness Sun altitude
Exits shadow 05:49:10 16° 329° (NNW) 2,177 4.0 -18.0°
Maximum altitude 05:52:48 27° 16° (NNE) 1,841 4.0 -17.4°
Drops below altitude 10° 05:58:55 10° 72° (ENE) 3,125 6.0 -16.5°
Sets 06:02:33 0° 84° (E) 4,257 7.2 -15.9°
